[Iaude] MPEC S108: 2017 SQ10 [a=2.42,e=0.58,i=0.8,H=26.2]

mpec at mpcdb1.cfa.harvard.edu mpec at mpcdb1.cfa.harvard.edu
Fri Sep 22 13:11:17 EDT 2017


M.P.E.C. 2017-S108                               Issued 2017 Sept. 22, 17:08 UT
 
     The Minor Planet Electronic Circulars contain information on unusual
         minor planets and routine data on comets.  They are published
    on behalf of Division F of the International Astronomical Union by the
          Minor Planet Center, Smithsonian Astrophysical Observatory,
                          Cambridge, MA 02138, U.S.A.

             Prepared using the Tamkin Foundation Computer Network

                              MPC at CFA.HARVARD.EDU
            URL http://www.minorplanetcenter.net/    ISSN 1523-6714


                                   2017 SQ10
 
Observations:
     K17S10Q* C2017 09 21.46576 23 33 59.551+09 33 11.55         20.2 wLES108F51
     K17S10Q  C2017 09 21.47814 23 34 10.284+09 34 38.51         20.6 wLES108F51
     K17S10Q  C2017 09 21.49055 23 34 21.114+09 36 05.86         20.7 wLES108F51
     K17S10Q KC2017 09 21.84578 23 40 11.16 +10 17 29.1          20.3 RqES108104
     K17S10Q KC2017 09 21.85756 23 40 22.14 +10 18 56.0                qES108104
     K17S10Q KC2017 09 21.87673 23 40 39.88 +10 21 16.4                qES108104
     K17S10Q KC2017 09 21.88726 23 40 49.68 +10 22 33.4          20.7 RqES108104
     K17S10Q KC2017 09 21.94202 23 41 40.68 +10 29 10.1                UES108587
     K17S10Q KC2017 09 21.94649 23 41 44.82 +10 29 42.5                UES108587
     K17S10Q KC2017 09 21.95580 23 41 53.52 +10 30 51.5          20.3 RUES108587
     K17S10Q KC2017 09 22.01327 23 42 47.23 +10 37 51.5                UES108204
     K17S10Q KC2017 09 22.02708 23 43 00.23 +10 39 32.2          20.3 GUES108204
     K17S10Q KC2017 09 22.02788 23 43 02.69 +10 39 25.3                UES108J95
     K17S10Q KC2017 09 22.03095 23 43 05.62 +10 39 47.7                UES108J95
     K17S10Q KC2017 09 22.03406 23 43 08.48 +10 40 10.6          20.2 GUES108J95
     K17S10Q KC2017 09 22.04071 23 43 13.08 +10 41 11.6                UES108204
     K17S10Q  C2017 09 22.31877 23 47 56.10 +11 16 15.5                qES108I52
     K17S10Q  C2017 09 22.32233 23 47 59.45 +11 16 42.0                qES108I52
     K17S10Q  C2017 09 22.32329 23 48 00.36 +11 16 49.5                qES108I52
     K17S10Q  C2017 09 22.32425 23 48 01.32 +11 16 57.0          20.4 VqES108I52
     K17S10Q  C2017 09 22.35014 23 48 26.24 +11 20 12.1          20.3 RoES108926
     K17S10Q  C2017 09 22.35300 23 48 28.98 +11 20 33.5          20.2 RoES108926
     K17S10Q  C2017 09 22.35586 23 48 31.74 +11 20 54.8          20.2 RoES108926
 
Observer details:
104 San Marcello Pistoiese.  Observers P. Bacci, M. Maestripieri.  Measurers
    P. Bacci, L. Tesi, G. Fagioli.  0.60-m f/4 reflector + CCD.
204 Schiaparelli Observatory.  Observer L. Buzzi.  0.60-m f/4.64 reflector
    + CCD.
587 Sormano.  Observers A. Fumagalli, P. Sicoli, A. Testa.  Measurer P. Sicoli.
    0.5-m f/6.8 reflector + CCD.
926 Tenagra II Observatory.  Observers M. Schwartz, P. R. Holvorcem.  Measurer
    M. Schwartz.  0.81-m f/7 Ritchey-Chretien + CCD.
F51 Pan-STARRS 1, Haleakala.  Observers J. Bulger, T. Lowe, A. Schultz,
    M. Willman.  Measurers K. Chambers, S. Chastel, L. Denneau, H. Flewelling,
    M. Huber, E. Lilly, E. Magnier, R. Wainscoat, C. Waters, R. Weryk.  1.8-m
    Ritchey-Chretien + CCD.
I52 Steward Observatory, Mt. Lemmon Station.  Observer G. J. Leonard.
    Measurers E. J. Christensen, D. C. Fuls, A. R. Gibbs, A. D. Grauer,
    J. A. Johnson, R. A. Kowalski, S. M. Larson, G. J. Leonard, R. G. Matheny,
    R. L. Seaman, F. C. Shelly.  1.0-m reflector + CCD.
J95 Great Shefford.  Observer P. Birtwhistle.  0.40-m f/6.0 Schmidt-Cassegrain
    + CCD.
 
Orbital elements:
2017 SQ10                                                Earth MOID = 0.0319 AU
Epoch 2017 Sept. 4.0 TT = JDT 2458000.5                 MPC
M 351.06255              (2000.0)            P               Q
n   0.26130050     Peri.  159.54772     +0.95142758     -0.30774639
a   2.4231254      Node   218.37928     +0.28045732     +0.87816198
e   0.5750362      Incl.    0.81359     +0.12700099     +0.36622903
P   3.77           H   26.2           G   0.15           U   7
Residuals in seconds of arc
170921 F51  0.0   0.1+    170921 587  0.0   0.9-    170922 I52  0.3-  0.0
170921 F51  0.2-  0.0     170921 587  0.6+  0.1-    170922 I52  1.1-  0.0
170921 F51  0.1+  0.1+    170922 204  0.0   0.2-    170922 I52  1.2-  0.3+
170921 104  0.5-  0.6+    170922 204  0.1+  0.2-    170922 I52  0.6-  0.7+
170921 104  0.1-  0.8+    170922 J95  0.3+  0.2-    170922 926  0.7+  0.2+
170921 104  0.9-  0.2+    170922 J95  0.7+  0.2-    170922 926  0.5+  0.4+
170921 104  0.3-  0.2-    170922 J95  0.5-  0.1-    170922 926  0.6+  0.5+
170921 587  0.3+  0.5-    170922 204  0.1-  0.2-

Ephemeris:
2017 SQ10                a,e,i = 2.42, 0.58, 1                   q = 1.0297
Date    TT    R. A. (2000) Decl.     Delta      r     Elong.  Phase     V
2017 08 23    21 18 11.3 -10 15 55   0.1744  1.1823   167.8    10.4    23.4
...
2017 09 07    21 42 54.2 -05 56 50   0.1013  1.1036   160.3    18.0    22.4
...
2017 09 15    22 22 45.7 -00 05 55   0.06881 1.0716   162.7    16.2    21.4
...
2017 09 21    23 26 58.2 +08 39 36   0.04992 1.0531   168.6    10.9    20.5
2017 09 22    23 42 36.1 +10 37 55   0.04759 1.0505   168.4    11.0    20.4
2017 09 23    23 59 58.4 +12 43 36   0.04558 1.0480   167.2    12.2    20.3
...
2017 09 29    02 14 46.4 +24 36 44   0.04214 1.0365   144.7    34.0    20.8
...
2017 10 07    04 47 31.8 +27 44 44   0.05878 1.0298   119.6    57.6    22.2
...
2017 10 22    06 21 19.4 +23 54 46   0.1106  1.0446   113.7    60.8    23.7

A. U. Tomatic                (C) Copyright 2017 MPC           M.P.E.C. 2017-S108




More information about the Iaude mailing list